Location: Peebles
(55.6412°N, 3.1714°W)
Time: 15:26:06
(UTC+01:00)

Cosmos 1295 Rocket - Pass Details

Date: 26 September 2021
Orbit: 944 x 993 km, 82.9° (Epoch: 17 October)

Event Time Altitude Azimuth Distance (km) Brightness Sun altitude
Rises 20:10:59 0° 179° (S) 3,664 7.4 -10.7°
Reaches altitude 10° 20:13:29 10° 177° (S) 2,727 6.7 -11.0°
Maximum altitude 20:19:41 69° 96° (E) 1,053 4.5 -11.9°
Drops below altitude 10° 20:26:00 10° 15° (NNE) 2,768 6.9 -12.7°
Sets 20:28:33 0° 13° (NNE) 3,723 7.6 -13.1°
